Volver al catálogo

CZ-6A DEB

ActivoPO
NORAD 56283·DEBRIS·🇨🇳 China

Lanzado Nov 11, 2022 desde Taiyuan Satellite Launch Center

Loading…

Próximos Pases (próximas 24 horas)

TLE

ActualizadoSource: Space-Track

Época: Sep 14, 2026, 03:02 UTC

1 56283U 22151ADB 26257.12665051  .00017555  00000-0  21586-2 0  9990
2 56283  98.5747 315.7837 0048680  19.8015 340.5071 14.82229066185251

Sigue CZ-6A DEB en tiempo real con AllMySat

Download on the App Store